ELEKTRO-L 3

导读 | 星芒AI

ELEKTRO-L 3 是俄罗斯一颗地球静止轨道气象卫星,于2016年发射,用于大气监测、天气预报和灾害预警。它搭载高分辨率光学和红外传感器,可提供实时气象图像和数据。该卫星是 ELEKTRO-L 系列的一部分,由俄罗斯国家航天集团(Roscosmos)运营,旨在提升俄罗斯在气象观测和空间监测方面的能力。

基本信息
目录编号:
44903
目录名称:
ELEKTRO-L 3
国际标识:
2019-095A
轨道中心:
EARTH
卫星名称:
ELEKTRO-L 3
卫星全名:
--
卫星状态:
在轨 (已飞行2138 天)
发射日期:
2019-12-24 UTC
国别 :
俄罗斯(独联体) (CIS)
星等 :
--
轨道信息
数据来源 国际轨道数据 AOE轨道数据
星历时间 2025-10-31T04:12:20+0800
5小时前
查看轨道信息
2025-10-31T05:00:00+0800
4小时前
查看轨道信息
半长轴 42164.953km 42164.868km
偏心率 0.0002121 0.0002214
轨道倾角 0.056° 0.057°
近地点辐角 201.332° 203.114°
升交点赤经 57.232° 56.915°
平近点角 159.996° 170.484°
近地点 35777.874km 35777.397km
远地点 35795.762km 35796.069km
周期 1436.108分钟 1436.104分钟
每日圈数 1.00271 1.002713
详细信息
使用方式:
暂无
2D轨道图
3D轨道图
轨道高度分析图
轨道倾角分析图
轨道综合分析图
查看轨道综合分析图